Location: Kuppenheim
(48.8299°N, 8.2568°E)
Time: 06:53:05
(UTC+00:00)

Envisat - Pass Details

Date: 02 December 2022
Orbit: 763 x 765 km, 98.2° (Epoch: 04 February)

Event Time Altitude Azimuth Distance (km) Brightness Sun altitude
Rises 16:16:10 0° 217° (SW) 3,221 7.5 -7.1°
Reaches altitude 10° 16:19:41 10° 243° (WSW) 2,302 7.3 -7.6°
Maximum altitude 16:22:13 14° 274° (W) 2,055 6.3 -8.0°
Drops below altitude 10° 16:24:45 10° 304° (NW) 2,311 6.0 -8.4°
Sets 16:28:19 0° 330° (NNW) 3,244 6.3 -8.9°
